GEFSCGP_prec_meanprecacc_168.txt.gz
Total_Precipitation_Accumulation
0.00 0.00 0.01 0.01 0.01 0.01 0.01 0.01 0.02 0.02 0.03 0.04 0.09 0.17 0.25 0.31 0.36 0.48 0.61 0.66 0.73 0.90 1.30 1.68 1.83 1.91 2.20 2.38 2.52 2.45 2.57 2.79 2.96 3.25 3.23 3.36 3.67 4.00 4.16 4.36 4.45 4.40 4.30 4.29
0.00 0.01 0.01 0.01 0.01 0.01 0.00 0.01 0.02 0.03 0.05 0.07 0.12 0.23 0.29 0.34 0.39 0.49 0.62 0.67 0.68 0.89 1.21 1.62 1.79 2.05 2.23 2.36 2.56 2.65 2.73 3.07 3.54 4.01 4.43 4.75 5.03 5.00 5.13 5.17 5.11 4.90 4.74 4.61
0.00 0.01 0.00 0.01 0.01 0.00 0.01 0.01 0.02 0.03 0.06 0.10 0.14 0.31 0.40 0.45 0.52 0.56 0.65 0.71 0.81 1.01 1.29 1.48 1.69 1.95 2.18 2.36 2.58 2.76 3.08 3.65 4.43 4.88 5.26 5.76 6.06 5.84 5.62 5.35 5.22 5.08 5.02 5.00
0.00 0.00 0.01 0.00 0.00 0.01 0.01 0.01 0.02 0.04 0.06 0.12 0.15 0.37 0.59 0.65 0.73 0.70 0.80 0.93 1.07 1.17 1.31 1.48 1.66 1.92 2.22 2.55 2.67 2.85 3.38 4.08 4.70 5.19 5.76 6.30 6.56 6.63 6.46 5.92 5.42 4.96 4.57 4.33
0.00 0.00 0.01 0.01 0.01 0.01 0.01 0.01 0.01 0.04 0.06 0.10 0.13 0.32 0.72 0.93 1.00 0.99 1.04 1.08 1.12 1.14 1.25 1.42 1.62 1.79 1.94 2.23 2.67 3.01 3.56 4.21 4.82 5.49 6.17 6.60 6.85 6.86 6.47 5.66 4.89 4.39 4.03 3.65
0.00 0.00 0.01 0.02 0.01 0.01 0.01 0.01 0.02 0.05 0.06 0.12 0.13 0.29 0.80 1.17 1.37 1.37 1.28 1.26 1.22 1.14 1.15 1.23 1.43 1.56 1.84 2.13 2.45 2.95 3.27 3.86 4.53 5.09 5.61 5.76 5.92 5.89 5.49 5.03 4.51 4.08 3.54 2.99
0.01 0.01 0.01 0.01 0.01 0.01 0.01 0.03 0.10 0.19 0.23 0.23 0.17 0.36 0.85 1.20 1.22 1.22 1.22 1.31 1.28 1.11 1.12 1.32 1.58 1.53 1.77 2.05 2.39 2.79 3.17 3.53 4.01 4.50 4.95 5.20 5.36 5.23 4.76 4.30 3.86 3.38 2.87 2.41
0.07 0.05 0.03 0.01 0.02 0.02 0.02 0.04 0.17 0.31 0.35 0.37 0.36 0.66 1.07 1.13 1.05 1.01 1.01 1.07 1.18 1.18 1.15 1.20 1.38 1.46 1.69 1.89 2.13 2.45 2.77 3.10 3.28 3.45 3.81 4.08 4.26 4.14 3.81 3.33 2.85 2.52 2.22 1.92
0.15 0.13 0.05 0.02 0.02 0.02 0.03 0.06 0.12 0.15 0.19 0.37 0.69 0.97 1.33 1.31 1.19 1.11 0.99 1.00 1.10 1.04 1.02 1.09 1.22 1.35 1.56 1.82 2.06 2.30 2.42 2.57 2.72 2.81 2.88 2.93 3.06 2.98 2.76 2.49 2.21 1.92 1.62 1.37
0.14 0.19 0.08 0.04 0.03 0.04 0.05 0.06 0.09 0.15 0.35 0.54 0.80 1.26 1.60 1.74 1.64 1.52 1.21 1.10 1.05 1.07 1.06 1.08 1.15 1.28 1.39 1.46 1.72 1.96 2.04 2.10 2.14 2.15 2.17 2.17 2.18 2.11 2.04 1.90 1.74 1.47 1.26 1.08
0.15 0.21 0.13 0.06 0.07 0.08 0.07 0.09 0.11 0.18 0.26 0.53 0.88 1.46 1.71 1.97 2.06 1.90 1.59 1.40 1.34 1.30 1.21 1.15 1.16 1.17 1.26 1.31 1.42 1.61 1.78 1.77 1.80 1.85 1.81 1.71 1.73 1.69 1.65 1.56 1.48 1.33 1.20 1.05
0.17 0.23 0.22 0.14 0.11 0.09 0.09 0.12 0.18 0.31 0.33 0.36 0.76 1.64 2.00 2.12 2.08 1.83 1.64 1.49 1.41 1.30 1.16 1.10 1.06 1.00 1.04 1.12 1.19 1.29 1.43 1.45 1.46 1.47 1.49 1.54 1.54 1.49 1.41 1.29 1.17 1.05 0.96 0.88
0.14 0.27 0.49 0.49 0.38 0.20 0.14 0.14 0.18 0.22 0.30 0.42 0.80 1.82 2.35 2.29 2.14 1.86 1.68 1.62 1.59 1.47 1.29 1.18 1.06 0.97 0.99 1.07 1.08 1.12 1.21 1.29 1.31 1.28 1.28 1.37 1.33 1.28 1.17 1.07 1.02 0.92 0.80 0.75
0.11 0.26 0.59 1.02 0.79 0.45 0.26 0.18 0.21 0.28 0.45 0.58 0.82 1.30 1.63 1.75 1.84 1.87 1.95 1.99 1.81 1.58 1.39 1.21 1.12 1.05 1.04 1.12 1.09 1.07 1.11 1.14 1.14 1.15 1.19 1.22 1.16 1.11 1.06 0.94 0.82 0.75 0.69 0.69
0.16 0.32 0.33 0.39 0.39 0.39 0.39 0.31 0.27 0.33 0.39 0.67 0.96 1.30 1.60 1.67 1.71 1.78 1.92 1.83 1.59 1.42 1.28 1.15 1.11 1.15 1.12 1.06 1.04 1.02 1.07 1.07 1.12 1.13 1.10 1.06 1.01 0.99 0.97 0.89 0.80 0.71 0.63 0.59
0.20 0.33 0.33 0.38 0.34 0.43 0.40 0.38 0.38 0.43 0.51 0.72 1.07 1.50 1.71 1.71 1.68 1.75 1.83 1.73 1.55 1.33 1.19 1.11 1.09 1.15 1.10 1.04 1.00 0.94 0.99 1.03 1.08 1.10 1.05 1.00 0.97 0.97 0.91 0.86 0.81 0.73 0.62 0.55
0.27 0.42 0.56 0.57 0.38 0.56 0.80 0.60 0.59 0.65 0.67 0.85 1.23 1.46 1.52 1.62 1.62 1.66 1.75 1.83 1.70 1.46 1.36 1.35 1.38 1.36 1.25 1.12 1.03 1.00 1.02 1.05 1.08 1.12 1.05 1.02 0.99 0.92 0.84 0.72 0.67 0.67 0.62 0.52
0.27 0.45 0.57 0.57 0.69 1.12 1.00 0.55 0.60 0.69 0.73 0.78 0.91 1.06 1.22 1.33 1.38 1.53 1.70 1.83 1.79 1.68 1.63 1.64 1.60 1.46 1.33 1.21 1.15 1.09 1.05 1.08 1.14 1.09 1.00 0.91 0.88 0.83 0.76 0.71 0.64 0.59 0.57 0.53
0.15 0.39 0.62 0.78 1.05 1.21 0.98 0.59 0.52 0.76 0.91 0.74 0.78 0.80 0.83 0.87 1.02 1.39 1.57 1.62 1.63 1.66 1.61 1.52 1.43 1.35 1.28 1.19 1.13 1.05 1.00 0.98 0.99 0.94 0.86 0.76 0.73 0.79 0.78 0.71 0.66 0.60 0.56 0.52
0.14 0.28 0.65 0.86 1.16 1.40 1.18 0.54 0.33 0.63 1.23 0.88 0.78 0.78 0.81 0.92 1.13 1.24 1.21 1.19 1.22 1.25 1.27 1.29 1.26 1.19 1.14 1.06 0.96 0.89 0.90 0.88 0.85 0.82 0.78 0.68 0.64 0.69 0.75 0.67 0.61 0.56 0.52 0.49
0.44 0.49 0.67 0.85 1.09 1.23 0.68 0.37 0.47 1.10 1.44 0.98 0.84 0.82 0.90 1.05 1.02 0.83 0.77 0.85 0.95 1.02 1.06 1.09 1.14 1.13 1.02 0.87 0.80 0.82 0.81 0.78 0.66 0.65 0.69 0.69 0.65 0.63 0.62 0.62 0.62 0.57 0.51 0.50
0.56 0.71 0.77 0.87 1.17 1.29 0.53 0.41 0.78 0.94 0.74 0.74 0.76 0.75 0.76 0.72 0.61 0.58 0.60 0.64 0.68 0.79 0.91 0.90 0.92 0.91 0.83 0.77 0.78 0.80 0.77 0.66 0.59 0.64 0.71 0.70 0.65 0.54 0.53 0.61 0.64 0.58 0.51 0.48
0.47 0.58 0.74 0.91 1.07 0.80 0.39 0.41 0.49 0.48 0.55 0.57 0.57 0.54 0.50 0.48 0.45 0.44 0.51 0.56 0.59 0.64 0.73 0.74 0.72 0.74 0.78 0.80 0.81 0.79 0.72 0.62 0.63 0.67 0.68 0.66 0.61 0.56 0.55 0.58 0.61 0.58 0.54 0.45
0.44 0.32 0.41 0.61 0.62 0.41 0.32 0.30 0.30 0.33 0.42 0.44 0.47 0.53 0.45 0.45 0.43 0.42 0.45 0.52 0.59 0.62 0.61 0.63 0.64 0.66 0.71 0.71 0.68 0.64 0.56 0.55 0.62 0.67 0.63 0.62 0.62 0.61 0.55 0.50 0.48 0.48 0.46 0.41
0.39 0.37 0.48 0.57 0.47 0.40 0.39 0.31 0.26 0.28 0.34 0.39 0.44 0.52 0.52 0.47 0.50 0.46 0.45 0.50 0.56 0.60 0.61 0.63 0.64 0.64 0.62 0.60 0.55 0.51 0.49 0.53 0.60 0.60 0.55 0.55 0.57 0.56 0.51 0.43 0.37 0.35 0.29 0.22
0.29 0.36 0.52 0.56 0.43 0.44 0.41 0.30 0.27 0.33 0.37 0.37 0.42 0.52 0.48 0.45 0.50 0.51 0.51 0.50 0.50 0.54 0.56 0.58 0.55 0.56 0.55 0.50 0.48 0.47 0.45 0.46 0.54 0.55 0.49 0.45 0.45 0.43 0.38 0.35 0.31 0.24 0.16 0.13

GEFSCGP_prec_meanprecacc_174.txt.gz
Total_Precipitation_Accumulation
0.00 0.00 0.01 0.01 0.01 0.01 0.01 0.01 0.02 0.03 0.03 0.04 0.09 0.17 0.26 0.31 0.37 0.48 0.62 0.68 0.74 0.91 1.34 1.74 1.90 2.01 2.28 2.45 2.59 2.49 2.61 2.84 3.02 3.32 3.31 3.45 3.79 4.11 4.25 4.44 4.52 4.49 4.40 4.37
0.01 0.01 0.01 0.01 0.01 0.01 0.00 0.01 0.02 0.03 0.05 0.07 0.12 0.23 0.29 0.34 0.39 0.49 0.63 0.69 0.70 0.90 1.23 1.65 1.84 2.14 2.33 2.44 2.64 2.71 2.79 3.12 3.60 4.08 4.50 4.84 5.13 5.11 5.24 5.27 5.21 5.01 4.85 4.73
0.00 0.01 0.00 0.01 0.01 0.01 0.01 0.01 0.02 0.03 0.06 0.10 0.14 0.31 0.40 0.45 0.52 0.56 0.66 0.73 0.82 1.03 1.31 1.50 1.71 1.99 2.23 2.41 2.64 2.83 3.14 3.72 4.52 5.00 5.38 5.86 6.15 5.91 5.68 5.45 5.34 5.24 5.17 5.12
0.00 0.00 0.01 0.00 0.00 0.01 0.01 0.01 0.02 0.04 0.06 0.12 0.15 0.37 0.59 0.65 0.73 0.70 0.80 0.94 1.08 1.19 1.32 1.49 1.68 1.95 2.24 2.57 2.71 2.91 3.44 4.14 4.77 5.28 5.86 6.40 6.64 6.71 6.54 6.02 5.52 5.09 4.75 4.52
0.00 0.01 0.01 0.01 0.01 0.01 0.01 0.01 0.01 0.04 0.06 0.10 0.13 0.32 0.72 0.93 1.00 0.99 1.05 1.08 1.13 1.16 1.27 1.44 1.64 1.81 1.96 2.24 2.68 3.04 3.60 4.24 4.87 5.54 6.25 6.68 6.91 6.93 6.55 5.77 5.01 4.50 4.14 3.80
0.00 0.00 0.01 0.02 0.01 0.01 0.01 0.01 0.02 0.05 0.07 0.13 0.14 0.29 0.81 1.17 1.37 1.37 1.28 1.27 1.24 1.15 1.16 1.24 1.45 1.58 1.86 2.14 2.46 2.97 3.29 3.89 4.57 5.12 5.64 5.80 5.97 5.95 5.57 5.13 4.65 4.23 3.68 3.15
0.01 0.01 0.01 0.01 0.01 0.01 0.01 0.03 0.10 0.20 0.23 0.23 0.17 0.37 0.86 1.20 1.22 1.22 1.23 1.32 1.29 1.12 1.14 1.34 1.59 1.54 1.79 2.07 2.41 2.82 3.20 3.56 4.03 4.52 4.98 5.22 5.40 5.29 4.83 4.39 3.95 3.50 3.00 2.55
0.07 0.05 0.03 0.01 0.02 0.02 0.02 0.04 0.17 0.32 0.36 0.37 0.36 0.66 1.08 1.13 1.05 1.01 1.01 1.07 1.19 1.19 1.16 1.22 1.39 1.48 1.72 1.91 2.15 2.49 2.80 3.13 3.31 3.48 3.84 4.10 4.30 4.19 3.86 3.38 2.91 2.60 2.34 2.06
0.15 0.13 0.05 0.02 0.02 0.02 0.03 0.06 0.12 0.15 0.19 0.38 0.69 0.98 1.34 1.31 1.19 1.11 0.99 1.00 1.10 1.06 1.03 1.11 1.24 1.37 1.58 1.84 2.09 2.34 2.46 2.62 2.76 2.87 2.93 2.97 3.09 3.02 2.80 2.54 2.26 1.98 1.72 1.51
0.14 0.19 0.08 0.04 0.03 0.04 0.05 0.06 0.09 0.16 0.35 0.55 0.81 1.27 1.61 1.75 1.65 1.53 1.23 1.12 1.07 1.09 1.07 1.09 1.17 1.30 1.40 1.48 1.75 2.00 2.09 2.18 2.26 2.28 2.27 2.22 2.21 2.14 2.08 1.94 1.79 1.55 1.37 1.20
0.15 0.21 0.13 0.06 0.07 0.08 0.07 0.09 0.11 0.18 0.27 0.54 0.89 1.47 1.72 1.99 2.07 1.91 1.60 1.42 1.36 1.32 1.22 1.17 1.19 1.20 1.28 1.34 1.45 1.67 1.87 1.87 1.92 2.00 1.93 1.77 1.76 1.72 1.68 1.62 1.56 1.45 1.34 1.18
0.17 0.23 0.22 0.14 0.11 0.09 0.09 0.12 0.18 0.32 0.34 0.38 0.78 1.65 2.01 2.13 2.09 1.84 1.65 1.50 1.43 1.32 1.17 1.11 1.07 1.02 1.06 1.16 1.25 1.38 1.55 1.57 1.56 1.60 1.62 1.63 1.61 1.56 1.45 1.34 1.24 1.14 1.04 0.93
0.14 0.28 0.49 0.49 0.39 0.20 0.14 0.14 0.18 0.23 0.32 0.44 0.83 1.84 2.36 2.30 2.15 1.87 1.69 1.63 1.61 1.49 1.30 1.19 1.07 0.98 1.01 1.10 1.14 1.20 1.31 1.42 1.43 1.40 1.39 1.46 1.41 1.34 1.20 1.10 1.07 1.00 0.91 0.86
0.11 0.26 0.59 1.03 0.80 0.45 0.26 0.18 0.22 0.30 0.47 0.60 0.85 1.33 1.64 1.76 1.86 1.88 1.97 2.01 1.83 1.61 1.41 1.23 1.14 1.06 1.06 1.13 1.12 1.12 1.17 1.23 1.27 1.31 1.34 1.31 1.23 1.17 1.11 0.97 0.85 0.79 0.75 0.81
0.16 0.32 0.33 0.39 0.39 0.39 0.39 0.31 0.28 0.34 0.42 0.70 0.99 1.32 1.62 1.68 1.73 1.80 1.94 1.86 1.62 1.46 1.30 1.16 1.13 1.17 1.13 1.08 1.06 1.06 1.12 1.13 1.21 1.26 1.25 1.18 1.10 1.07 1.03 0.94 0.85 0.75 0.68 0.66
0.20 0.33 0.33 0.38 0.34 0.43 0.40 0.39 0.39 0.44 0.52 0.74 1.08 1.51 1.72 1.72 1.70 1.77 1.86 1.77 1.59 1.36 1.21 1.13 1.11 1.17 1.13 1.07 1.02 0.98 1.04 1.07 1.13 1.17 1.14 1.09 1.03 1.02 0.96 0.91 0.86 0.77 0.67 0.62
0.28 0.43 0.56 0.58 0.38 0.57 0.81 0.61 0.61 0.66 0.68 0.86 1.25 1.47 1.53 1.64 1.64 1.69 1.79 1.86 1.74 1.49 1.40 1.40 1.42 1.39 1.27 1.14 1.05 1.02 1.06 1.09 1.12 1.16 1.10 1.08 1.04 0.97 0.91 0.77 0.72 0.71 0.67 0.57
0.28 0.46 0.58 0.58 0.70 1.13 1.01 0.56 0.61 0.71 0.74 0.79 0.93 1.07 1.24 1.36 1.41 1.56 1.75 1.86 1.83 1.72 1.68 1.69 1.63 1.48 1.35 1.23 1.16 1.11 1.06 1.11 1.17 1.12 1.04 0.95 0.93 0.88 0.81 0.76 0.68 0.63 0.61 0.57
0.16 0.39 0.63 0.79 1.06 1.23 1.00 0.60 0.55 0.80 0.96 0.77 0.80 0.82 0.85 0.89 1.05 1.43 1.61 1.66 1.68 1.70 1.64 1.54 1.46 1.38 1.30 1.20 1.14 1.05 1.01 0.99 1.00 0.96 0.88 0.79 0.77 0.84 0.83 0.76 0.71 0.64 0.60 0.57
0.15 0.29 0.66 0.89 1.20 1.46 1.21 0.57 0.38 0.69 1.30 0.91 0.81 0.82 0.84 0.95 1.17 1.28 1.24 1.23 1.26 1.29 1.30 1.30 1.27 1.20 1.14 1.06 0.96 0.90 0.91 0.90 0.87 0.85 0.81 0.70 0.67 0.73 0.79 0.73 0.67 0.59 0.55 0.53
0.45 0.51 0.69 0.88 1.13 1.28 0.72 0.42 0.54 1.18 1.51 1.02 0.87 0.85 0.93 1.08 1.06 0.86 0.80 0.87 0.98 1.05 1.08 1.10 1.14 1.14 1.02 0.87 0.81 0.83 0.83 0.81 0.69 0.69 0.73 0.72 0.68 0.66 0.65 0.66 0.66 0.60 0.54 0.53
0.57 0.73 0.79 0.90 1.22 1.34 0.57 0.46 0.84 1.00 0.78 0.77 0.79 0.77 0.78 0.74 0.63 0.60 0.62 0.66 0.71 0.82 0.93 0.92 0.93 0.91 0.83 0.78 0.79 0.81 0.78 0.69 0.63 0.69 0.75 0.73 0.68 0.57 0.57 0.66 0.68 0.61 0.55 0.51
0.47 0.59 0.77 0.94 1.10 0.82 0.42 0.45 0.52 0.51 0.58 0.59 0.58 0.56 0.51 0.51 0.47 0.46 0.53 0.59 0.63 0.68 0.75 0.75 0.72 0.75 0.79 0.81 0.82 0.80 0.74 0.64 0.66 0.70 0.72 0.70 0.65 0.60 0.60 0.64 0.66 0.63 0.57 0.48
0.45 0.33 0.43 0.62 0.64 0.43 0.34 0.32 0.32 0.35 0.43 0.46 0.49 0.54 0.47 0.47 0.47 0.45 0.48 0.56 0.63 0.65 0.63 0.63 0.65 0.66 0.72 0.72 0.69 0.66 0.58 0.58 0.66 0.70 0.67 0.65 0.67 0.67 0.61 0.57 0.54 0.51 0.48 0.43
0.41 0.40 0.51 0.60 0.49 0.42 0.40 0.33 0.27 0.29 0.35 0.39 0.45 0.53 0.53 0.50 0.54 0.51 0.50 0.55 0.60 0.63 0.62 0.64 0.65 0.65 0.63 0.61 0.57 0.54 0.54 0.59 0.65 0.64 0.59 0.59 0.63 0.62 0.57 0.48 0.41 0.37 0.31 0.23
0.31 0.40 0.57 0.60 0.46 0.48 0.43 0.31 0.28 0.35 0.38 0.39 0.43 0.53 0.50 0.48 0.54 0.58 0.58 0.55 0.53 0.56 0.57 0.59 0.56 0.57 0.56 0.52 0.51 0.51 0.50 0.50 0.57 0.57 0.52 0.49 0.50 0.49 0.43 0.39 0.34 0.26 0.18 0.14

GEFSCGP_prec_meanprecacc_180.txt.gz
Total_Precipitation_Accumulation
0.00 0.00 0.01 0.01 0.01 0.01 0.01 0.01 0.02 0.03 0.03 0.05 0.09 0.17 0.26 0.32 0.37 0.49 0.63 0.69 0.75 0.92 1.34 1.75 1.92 2.04 2.33 2.49 2.64 2.58 2.70 2.94 3.13 3.46 3.41 3.54 3.90 4.25 4.42 4.61 4.63 4.58 4.48 4.47
0.01 0.01 0.01 0.01 0.01 0.01 0.01 0.01 0.02 0.04 0.05 0.07 0.14 0.24 0.29 0.34 0.40 0.50 0.64 0.70 0.71 0.91 1.23 1.66 1.87 2.19 2.39 2.49 2.71 2.81 2.89 3.24 3.71 4.23 4.67 5.01 5.36 5.37 5.50 5.49 5.39 5.13 4.96 4.82
0.01 0.01 0.01 0.01 0.01 0.01 0.01 0.01 0.02 0.03 0.07 0.10 0.15 0.32 0.41 0.46 0.53 0.58 0.67 0.74 0.83 1.03 1.32 1.52 1.75 2.02 2.27 2.48 2.71 2.90 3.22 3.79 4.60 5.09 5.48 5.97 6.29 6.07 5.86 5.60 5.48 5.36 5.28 5.20
0.01 0.01 0.01 0.01 0.01 0.01 0.02 0.02 0.02 0.04 0.06 0.13 0.15 0.38 0.61 0.67 0.76 0.72 0.82 0.95 1.09 1.20 1.33 1.50 1.69 1.96 2.27 2.61 2.74 2.94 3.49 4.18 4.83 5.34 5.93 6.48 6.72 6.78 6.62 6.10 5.62 5.19 4.85 4.60
0.00 0.01 0.01 0.01 0.01 0.01 0.02 0.01 0.01 0.04 0.07 0.10 0.14 0.33 0.74 0.96 1.05 1.03 1.10 1.12 1.15 1.17 1.28 1.45 1.65 1.82 1.97 2.26 2.70 3.05 3.63 4.28 4.91 5.59 6.30 6.74 6.97 6.99 6.61 5.84 5.09 4.58 4.23 3.87
0.00 0.00 0.01 0.02 0.01 0.01 0.01 0.01 0.02 0.05 0.08 0.14 0.14 0.30 0.84 1.21 1.42 1.42 1.32 1.29 1.25 1.16 1.17 1.25 1.46 1.59 1.88 2.15 2.48 2.98 3.32 3.92 4.60 5.16 5.68 5.85 6.03 6.01 5.64 5.20 4.72 4.30 3.74 3.21
0.01 0.01 0.01 0.01 0.01 0.01 0.01 0.03 0.11 0.21 0.26 0.25 0.18 0.38 0.90 1.24 1.26 1.25 1.24 1.32 1.30 1.13 1.14 1.35 1.61 1.56 1.82 2.10 2.43 2.84 3.24 3.59 4.07 4.56 5.02 5.27 5.46 5.37 4.91 4.46 4.03 3.57 3.06 2.62
0.07 0.05 0.03 0.02 0.02 0.02 0.02 0.04 0.19 0.35 0.39 0.41 0.39 0.69 1.12 1.16 1.07 1.03 1.02 1.08 1.19 1.20 1.18 1.25 1.41 1.50 1.75 1.96 2.20 2.54 2.87 3.20 3.38 3.57 3.93 4.20 4.41 4.30 3.96 3.47 2.99 2.68 2.41 2.13
0.15 0.13 0.05 0.02 0.02 0.02 0.03 0.06 0.13 0.15 0.21 0.41 0.74 1.02 1.37 1.33 1.22 1.13 1.01 1.01 1.11 1.08 1.05 1.13 1.26 1.40 1.60 1.89 2.22 2.46 2.56 2.71 2.87 3.01 3.08 3.12 3.25 3.18 2.95 2.66 2.35 2.07 1.79 1.57
0.14 0.19 0.08 0.04 0.03 0.04 0.05 0.06 0.09 0.16 0.37 0.58 0.85 1.32 1.65 1.79 1.69 1.56 1.25 1.14 1.08 1.10 1.09 1.10 1.19 1.32 1.42 1.51 1.82 2.10 2.15 2.24 2.31 2.35 2.39 2.41 2.41 2.29 2.20 2.05 1.88 1.63 1.46 1.30
0.15 0.21 0.13 0.06 0.07 0.08 0.07 0.09 0.12 0.19 0.28 0.56 0.94 1.52 1.75 2.03 2.11 1.95 1.62 1.44 1.38 1.33 1.24 1.19 1.21 1.22 1.29 1.36 1.48 1.71 1.90 1.90 1.96 2.04 1.99 1.89 1.91 1.85 1.80 1.72 1.63 1.52 1.45 1.34
0.17 0.23 0.22 0.14 0.11 0.09 0.09 0.12 0.19 0.34 0.36 0.41 0.84 1.71 2.03 2.15 2.11 1.87 1.67 1.52 1.46 1.35 1.20 1.13 1.10 1.04 1.09 1.20 1.29 1.41 1.58 1.60 1.59 1.63 1.66 1.69 1.69 1.66 1.57 1.45 1.34 1.22 1.12 1.02
0.14 0.28 0.50 0.51 0.40 0.20 0.14 0.14 0.19 0.24 0.35 0.48 0.90 1.90 2.40 2.34 2.18 1.90 1.72 1.67 1.64 1.53 1.34 1.22 1.10 1.01 1.04 1.15 1.19 1.24 1.35 1.45 1.47 1.44 1.44 1.52 1.47 1.42 1.29 1.21 1.18 1.09 0.98 0.93
0.11 0.27 0.62 1.06 0.82 0.45 0.26 0.19 0.22 0.32 0.52 0.65 0.91 1.37 1.69 1.83 1.91 1.91 2.01 2.04 1.86 1.64 1.44 1.26 1.18 1.11 1.10 1.16 1.16 1.18 1.21 1.27 1.33 1.36 1.41 1.40 1.34 1.25 1.19 1.06 0.93 0.86 0.80 0.86
0.16 0.33 0.34 0.39 0.39 0.39 0.39 0.32 0.29 0.35 0.44 0.73 1.04 1.36 1.65 1.75 1.77 1.83 1.97 1.88 1.64 1.49 1.34 1.20 1.17 1.21 1.17 1.13 1.11 1.10 1.16 1.16 1.26 1.30 1.30 1.27 1.22 1.17 1.11 1.03 0.94 0.81 0.73 0.70
0.20 0.34 0.34 0.39 0.34 0.43 0.41 0.40 0.40 0.46 0.54 0.76 1.11 1.54 1.74 1.75 1.72 1.80 1.89 1.81 1.62 1.38 1.23 1.16 1.15 1.21 1.17 1.11 1.06 1.01 1.06 1.10 1.17 1.21 1.18 1.14 1.10 1.12 1.05 0.98 0.94 0.84 0.73 0.67
0.28 0.44 0.58 0.59 0.39 0.58 0.84 0.63 0.61 0.68 0.70 0.88 1.28 1.51 1.56 1.65 1.66 1.72 1.81 1.88 1.76 1.51 1.42 1.43 1.45 1.42 1.30 1.17 1.07 1.05 1.09 1.13 1.17 1.21 1.14 1.13 1.10 1.05 0.99 0.83 0.79 0.78 0.74 0.63
0.28 0.47 0.60 0.59 0.72 1.17 1.05 0.57 0.62 0.72 0.76 0.81 0.95 1.10 1.27 1.39 1.44 1.59 1.76 1.89 1.86 1.74 1.71 1.72 1.67 1.52 1.38 1.26 1.19 1.13 1.09 1.14 1.21 1.18 1.10 1.01 1.00 0.95 0.89 0.84 0.77 0.71 0.68 0.63
0.16 0.40 0.65 0.82 1.10 1.28 1.03 0.61 0.56 0.83 1.00 0.79 0.82 0.85 0.88 0.92 1.09 1.46 1.62 1.69 1.71 1.72 1.68 1.58 1.50 1.42 1.34 1.23 1.16 1.07 1.04 1.02 1.05 1.01 0.94 0.85 0.84 0.90 0.91 0.87 0.80 0.73 0.67 0.64
0.16 0.30 0.68 0.92 1.24 1.51 1.25 0.57 0.38 0.71 1.33 0.93 0.83 0.85 0.88 1.00 1.23 1.32 1.26 1.24 1.28 1.32 1.34 1.35 1.32 1.25 1.19 1.10 0.99 0.93 0.94 0.94 0.92 0.89 0.87 0.76 0.73 0.80 0.86 0.82 0.76 0.66 0.62 0.60
0.47 0.53 0.73 0.92 1.18 1.33 0.75 0.43 0.55 1.22 1.55 1.04 0.90 0.90 0.99 1.15 1.12 0.90 0.83 0.89 0.99 1.08 1.13 1.16 1.22 1.21 1.08 0.90 0.84 0.86 0.86 0.85 0.74 0.72 0.77 0.76 0.73 0.72 0.72 0.72 0.74 0.66 0.60 0.59
0.59 0.76 0.85 0.98 1.30 1.40 0.60 0.49 0.87 1.05 0.83 0.81 0.85 0.85 0.86 0.81 0.68 0.65 0.66 0.69 0.73 0.86 0.98 0.99 1.03 0.99 0.87 0.80 0.82 0.85 0.82 0.73 0.67 0.72 0.79 0.77 0.74 0.63 0.63 0.73 0.75 0.68 0.61 0.57
0.48 0.61 0.81 1.00 1.18 0.91 0.49 0.51 0.58 0.57 0.64 0.66 0.67 0.63 0.57 0.56 0.52 0.50 0.56 0.62 0.66 0.72 0.81 0.83 0.81 0.80 0.82 0.83 0.86 0.86 0.79 0.69 0.70 0.74 0.76 0.75 0.69 0.66 0.66 0.71 0.73 0.69 0.63 0.54
0.45 0.33 0.44 0.65 0.67 0.47 0.40 0.37 0.37 0.41 0.51 0.53 0.56 0.60 0.51 0.52 0.51 0.49 0.51 0.59 0.67 0.71 0.69 0.69 0.70 0.70 0.75 0.75 0.73 0.71 0.63 0.62 0.71 0.75 0.72 0.71 0.73 0.72 0.66 0.63 0.59 0.58 0.54 0.48
0.42 0.40 0.52 0.62 0.50 0.43 0.41 0.34 0.29 0.32 0.37 0.41 0.48 0.57 0.56 0.53 0.58 0.55 0.55 0.61 0.65 0.67 0.67 0.68 0.69 0.69 0.66 0.65 0.62 0.59 0.59 0.64 0.71 0.68 0.63 0.63 0.67 0.67 0.63 0.52 0.45 0.41 0.35 0.27
0.32 0.42 0.59 0.62 0.47 0.49 0.44 0.32 0.29 0.36 0.39 0.40 0.45 0.55 0.52 0.50 0.58 0.62 0.63 0.60 0.57 0.59 0.61 0.64 0.60 0.60 0.60 0.56 0.55 0.56 0.55 0.55 0.61 0.61 0.56 0.53 0.55 0.54 0.49 0.44 0.38 0.30 0.20 0.16

GEFSCGP_prec_meanprecacc_186.txt.gz
Total_Precipitation_Accumulation
0.00 0.00 0.01 0.01 0.01 0.01 0.01 0.02 0.03 0.03 0.04 0.05 0.10 0.18 0.27 0.33 0.38 0.51 0.65 0.72 0.77 0.93 1.36 1.77 1.94 2.05 2.35 2.54 2.70 2.65 2.77 3.03 3.25 3.62 3.59 3.74 4.11 4.47 4.62 4.81 4.85 4.71 4.57 4.53
0.01 0.01 0.01 0.01 0.01 0.01 0.01 0.01 0.02 0.04 0.06 0.08 0.15 0.25 0.31 0.35 0.40 0.52 0.71 0.78 0.74 0.93 1.26 1.70 1.92 2.24 2.45 2.56 2.77 2.88 2.95 3.31 3.79 4.35 4.85 5.22 5.53 5.53 5.69 5.69 5.59 5.29 5.07 4.90
0.01 0.01 0.01 0.01 0.01 0.01 0.01 0.01 0.02 0.04 0.08 0.11 0.18 0.34 0.42 0.47 0.54 0.60 0.73 0.79 0.85 1.05 1.35 1.57 1.80 2.09 2.34 2.53 2.76 2.95 3.27 3.85 4.67 5.16 5.60 6.14 6.45 6.20 5.95 5.69 5.62 5.53 5.43 5.29
0.01 0.01 0.01 0.01 0.01 0.01 0.02 0.02 0.03 0.04 0.07 0.14 0.18 0.40 0.63 0.69 0.78 0.75 0.86 0.99 1.12 1.22 1.36 1.55 1.76 2.02 2.32 2.66 2.78 2.99 3.54 4.23 4.87 5.39 5.98 6.54 6.81 6.87 6.70 6.18 5.70 5.28 4.97 4.70
0.01 0.01 0.01 0.02 0.01 0.01 0.02 0.01 0.01 0.05 0.07 0.12 0.16 0.36 0.78 0.99 1.07 1.06 1.14 1.17 1.19 1.22 1.33 1.49 1.69 1.86 2.02 2.34 2.79 3.14 3.70 4.34 4.97 5.65 6.36 6.80 7.06 7.06 6.68 5.90 5.15 4.64 4.32 3.99
0.00 0.01 0.01 0.02 0.01 0.01 0.01 0.01 0.03 0.05 0.08 0.16 0.16 0.34 0.89 1.26 1.47 1.46 1.36 1.34 1.31 1.24 1.23 1.29 1.48 1.62 1.91 2.23 2.60 3.08 3.40 3.99 4.66 5.23 5.77 5.95 6.12 6.08 5.69 5.25 4.77 4.36 3.82 3.32
0.01 0.01 0.01 0.01 0.01 0.01 0.01 0.03 0.12 0.22 0.26 0.27 0.21 0.44 0.98 1.31 1.31 1.30 1.30 1.39 1.35 1.17 1.18 1.39 1.65 1.61 1.85 2.15 2.53 2.95 3.34 3.71 4.19 4.69 5.16 5.40 5.56 5.43 4.96 4.51 4.08 3.63 3.13 2.70
0.07 0.05 0.04 0.02 0.02 0.03 0.02 0.05 0.21 0.36 0.41 0.43 0.42 0.75 1.17 1.21 1.12 1.07 1.06 1.12 1.23 1.24 1.23 1.32 1.47 1.54 1.78 2.01 2.27 2.65 2.98 3.33 3.53 3.74 4.10 4.35 4.50 4.39 4.04 3.54 3.05 2.74 2.48 2.19
0.15 0.13 0.05 0.03 0.02 0.03 0.04 0.07 0.13 0.16 0.23 0.43 0.78 1.07 1.42 1.38 1.26 1.18 1.06 1.06 1.16 1.12 1.11 1.18 1.30 1.44 1.63 1.92 2.27 2.54 2.65 2.84 2.99 3.16 3.24 3.27 3.37 3.27 3.01 2.70 2.39 2.11 1.86 1.63
0.14 0.19 0.09 0.04 0.03 0.04 0.06 0.07 0.10 0.17 0.41 0.62 0.91 1.38 1.70 1.83 1.72 1.59 1.29 1.18 1.13 1.15 1.13 1.14 1.22 1.35 1.46 1.54 1.87 2.18 2.21 2.31 2.37 2.41 2.48 2.47 2.48 2.36 2.26 2.10 1.91 1.66 1.50 1.34
0.16 0.21 0.13 0.07 0.08 0.09 0.08 0.10 0.12 0.20 0.30 0.59 0.98 1.56 1.78 2.06 2.14 1.97 1.64 1.47 1.42 1.38 1.28 1.22 1.23 1.25 1.34 1.42 1.55 1.79 1.96 1.97 2.01 2.08 2.02 1.91 1.94 1.91 1.88 1.79 1.68 1.56 1.48 1.38
0.17 0.23 0.22 0.14 0.12 0.09 0.09 0.13 0.20 0.35 0.38 0.43 0.86 1.75 2.07 2.20 2.15 1.88 1.69 1.55 1.49 1.41 1.25 1.17 1.13 1.08 1.14 1.28 1.36 1.46 1.64 1.69 1.69 1.69 1.69 1.73 1.74 1.72 1.67 1.52 1.39 1.27 1.15 1.05
0.14 0.29 0.51 0.52 0.40 0.21 0.14 0.14 0.20 0.26 0.36 0.50 0.94 1.95 2.44 2.38 2.21 1.92 1.74 1.70 1.68 1.58 1.39 1.26 1.14 1.07 1.11 1.21 1.24 1.27 1.39 1.55 1.57 1.50 1.48 1.57 1.54 1.47 1.39 1.31 1.23 1.13 1.00 0.95
0.11 0.27 0.64 1.08 0.83 0.46 0.27 0.19 0.23 0.34 0.54 0.67 0.93 1.41 1.73 1.86 1.94 1.95 2.04 2.08 1.89 1.67 1.47 1.29 1.21 1.16 1.16 1.21 1.19 1.20 1.25 1.34 1.43 1.45 1.46 1.44 1.39 1.32 1.29 1.17 0.99 0.91 0.84 0.88
0.17 0.34 0.35 0.40 0.40 0.40 0.39 0.33 0.30 0.38 0.48 0.76 1.06 1.39 1.68 1.76 1.79 1.85 1.99 1.92 1.69 1.53 1.38 1.24 1.21 1.26 1.23 1.17 1.14 1.12 1.19 1.20 1.35 1.39 1.34 1.30 1.28 1.24 1.22 1.13 1.01 0.87 0.78 0.74
0.20 0.34 0.34 0.40 0.35 0.44 0.42 0.41 0.41 0.47 0.57 0.79 1.13 1.55 1.76 1.76 1.74 1.82 1.92 1.86 1.68 1.41 1.26 1.19 1.18 1.24 1.19 1.13 1.09 1.04 1.09 1.13 1.22 1.29 1.23 1.18 1.15 1.19 1.14 1.08 1.02 0.92 0.80 0.72
0.28 0.44 0.59 0.60 0.39 0.59 0.86 0.64 0.63 0.69 0.72 0.92 1.32 1.53 1.58 1.67 1.68 1.74 1.84 1.92 1.79 1.54 1.44 1.45 1.47 1.44 1.32 1.19 1.10 1.08 1.12 1.17 1.21 1.26 1.18 1.17 1.14 1.10 1.05 0.91 0.86 0.86 0.81 0.69
0.28 0.47 0.60 0.61 0.74 1.19 1.07 0.58 0.63 0.74 0.77 0.83 0.98 1.12 1.29 1.40 1.46 1.62 1.80 1.94 1.89 1.77 1.73 1.74 1.68 1.54 1.40 1.27 1.21 1.16 1.12 1.18 1.24 1.21 1.13 1.05 1.04 0.99 0.93 0.89 0.81 0.75 0.74 0.68
0.17 0.40 0.65 0.83 1.12 1.30 1.05 0.62 0.57 0.85 1.02 0.80 0.84 0.87 0.90 0.94 1.11 1.48 1.64 1.72 1.74 1.75 1.69 1.59 1.52 1.43 1.35 1.25 1.19 1.10 1.07 1.05 1.07 1.04 0.98 0.89 0.89 0.94 0.95 0.91 0.85 0.76 0.71 0.67
0.16 0.30 0.69 0.93 1.26 1.53 1.27 0.59 0.41 0.73 1.36 0.94 0.84 0.89 0.92 1.03 1.26 1.35 1.29 1.28 1.32 1.34 1.36 1.36 1.33 1.26 1.20 1.13 1.03 0.96 0.97 0.97 0.94 0.92 0.91 0.80 0.78 0.85 0.90 0.87 0.80 0.69 0.65 0.63
0.49 0.55 0.74 0.93 1.19 1.35 0.77 0.45 0.59 1.26 1.59 1.06 0.91 0.94 1.06 1.18 1.16 0.95 0.88 0.93 1.02 1.11 1.15 1.17 1.23 1.23 1.10 0.94 0.87 0.89 0.88 0.87 0.76 0.75 0.80 0.80 0.77 0.77 0.77 0.77 0.78 0.69 0.62 0.61
0.63 0.79 0.87 0.99 1.32 1.42 0.62 0.50 0.91 1.09 0.85 0.81 0.86 0.89 0.90 0.84 0.71 0.69 0.71 0.72 0.76 0.88 1.00 1.01 1.06 1.02 0.91 0.83 0.85 0.87 0.84 0.75 0.70 0.75 0.83 0.81 0.77 0.67 0.67 0.77 0.80 0.72 0.64 0.60
0.50 0.65 0.86 1.05 1.22 0.93 0.50 0.52 0.59 0.59 0.65 0.66 0.68 0.64 0.58 0.57 0.54 0.53 0.61 0.65 0.70 0.75 0.83 0.86 0.85 0.84 0.85 0.85 0.88 0.88 0.80 0.71 0.73 0.78 0.82 0.81 0.74 0.70 0.70 0.74 0.76 0.72 0.65 0.58
0.45 0.34 0.45 0.68 0.71 0.51 0.42 0.39 0.37 0.41 0.51 0.53 0.56 0.61 0.52 0.53 0.53 0.52 0.55 0.63 0.71 0.75 0.73 0.73 0.74 0.73 0.78 0.77 0.75 0.73 0.65 0.64 0.74 0.80 0.78 0.77 0.78 0.76 0.70 0.65 0.61 0.60 0.56 0.51
0.43 0.41 0.53 0.63 0.52 0.44 0.43 0.35 0.30 0.32 0.37 0.42 0.49 0.58 0.57 0.55 0.61 0.58 0.58 0.64 0.68 0.71 0.70 0.72 0.73 0.72 0.69 0.68 0.64 0.61 0.61 0.67 0.75 0.74 0.70 0.69 0.73 0.70 0.64 0.54 0.46 0.43 0.38 0.29
0.34 0.44 0.60 0.63 0.49 0.50 0.45 0.33 0.29 0.36 0.39 0.40 0.46 0.56 0.54 0.53 0.60 0.65 0.65 0.62 0.60 0.62 0.63 0.67 0.64 0.64 0.63 0.59 0.57 0.59 0.60 0.59 0.65 0.65 0.60 0.57 0.59 0.57 0.50 0.45 0.39 0.32 0.23 0.19

GEFSCGP_prec_meanprecacc_192.txt.gz
Total_Precipitation_Accumulation
0.00 0.01 0.01 0.01 0.01 0.01 0.01 0.02 0.03 0.04 0.04 0.05 0.10 0.18 0.27 0.33 0.40 0.53 0.68 0.75 0.80 0.95 1.38 1.79 1.98 2.10 2.40 2.61 2.78 2.76 2.88 3.13 3.35 3.70 3.67 3.84 4.24 4.59 4.74 4.91 4.92 4.80 4.66 4.60
0.01 0.01 0.01 0.01 0.01 0.01 0.01 0.01 0.02 0.04 0.06 0.08 0.15 0.25 0.31 0.35 0.41 0.53 0.73 0.81 0.76 0.95 1.28 1.74 1.97 2.30 2.53 2.66 2.89 3.01 3.10 3.45 3.92 4.45 4.96 5.34 5.68 5.67 5.79 5.77 5.65 5.34 5.12 4.96
0.01 0.01 0.01 0.01 0.01 0.01 0.01 0.01 0.02 0.04 0.08 0.11 0.18 0.35 0.42 0.48 0.55 0.61 0.74 0.80 0.88 1.07 1.37 1.61 1.87 2.17 2.44 2.67 2.92 3.10 3.39 3.95 4.77 5.26 5.71 6.24 6.54 6.30 6.06 5.78 5.69 5.60 5.49 5.35
0.01 0.01 0.01 0.01 0.01 0.01 0.02 0.02 0.03 0.04 0.07 0.14 0.18 0.41 0.63 0.70 0.79 0.75 0.86 1.00 1.15 1.26 1.41 1.61 1.84 2.09 2.41 2.75 2.88 3.07 3.62 4.30 4.96 5.48 6.07 6.63 6.89 6.96 6.79 6.25 5.76 5.34 5.04 4.78
0.01 0.01 0.01 0.02 0.01 0.01 0.02 0.01 0.02 0.05 0.07 0.12 0.16 0.36 0.78 1.00 1.08 1.07 1.14 1.19 1.22 1.26 1.38 1.53 1.72 1.91 2.07 2.40 2.85 3.19 3.76 4.40 5.04 5.74 6.45 6.87 7.12 7.14 6.77 5.99 5.21 4.68 4.36 4.06
0.01 0.01 0.01 0.02 0.01 0.01 0.01 0.01 0.03 0.05 0.08 0.16 0.16 0.34 0.90 1.27 1.47 1.46 1.37 1.36 1.35 1.28 1.27 1.31 1.51 1.66 1.94 2.26 2.64 3.12 3.44 4.04 4.70 5.28 5.82 6.01 6.19 6.15 5.75 5.32 4.84 4.40 3.86 3.37
0.01 0.02 0.02 0.01 0.01 0.01 0.01 0.03 0.12 0.22 0.26 0.27 0.21 0.45 1.00 1.32 1.32 1.31 1.32 1.41 1.37 1.20 1.21 1.41 1.67 1.63 1.88 2.18 2.56 2.98 3.36 3.74 4.24 4.73 5.20 5.45 5.61 5.50 5.02 4.55 4.13 3.68 3.17 2.75
0.08 0.05 0.04 0.02 0.03 0.03 0.03 0.05 0.21 0.36 0.41 0.43 0.42 0.76 1.18 1.21 1.12 1.08 1.07 1.13 1.25 1.26 1.26 1.35 1.49 1.57 1.80 2.03 2.30 2.68 3.02 3.38 3.61 3.82 4.16 4.41 4.55 4.44 4.10 3.59 3.12 2.81 2.53 2.25
0.15 0.13 0.06 0.03 0.03 0.03 0.04 0.07 0.14 0.17 0.23 0.44 0.79 1.08 1.43 1.39 1.27 1.18 1.06 1.07 1.17 1.15 1.14 1.22 1.33 1.46 1.65 1.93 2.29 2.57 2.70 2.90 3.08 3.26 3.31 3.33 3.43 3.32 3.06 2.75 2.44 2.15 1.90 1.68
0.14 0.19 0.09 0.04 0.03 0.05 0.06 0.07 0.10 0.18 0.41 0.62 0.92 1.38 1.72 1.84 1.73 1.60 1.30 1.20 1.15 1.18 1.17 1.18 1.25 1.37 1.47 1.55 1.88 2.20 2.26 2.37 2.45 2.50 2.53 2.51 2.54 2.41 2.31 2.14 1.94 1.69 1.54 1.37
0.16 0.21 0.14 0.07 0.08 0.09 0.08 0.10 0.13 0.20 0.30 0.59 0.99 1.57 1.79 2.07 2.15 1.98 1.66 1.49 1.44 1.40 1.31 1.26 1.27 1.27 1.36 1.44 1.57 1.83 2.02 2.04 2.09 2.17 2.09 1.96 1.99 1.97 1.93 1.83 1.72 1.60 1.53 1.41
0.17 0.23 0.22 0.14 0.12 0.10 0.10 0.13 0.20 0.36 0.38 0.43 0.87 1.75 2.07 2.20 2.16 1.90 1.71 1.57 1.51 1.42 1.28 1.22 1.17 1.11 1.16 1.30 1.40 1.51 1.72 1.78 1.79 1.81 1.81 1.82 1.81 1.78 1.72 1.57 1.44 1.32 1.19 1.08
0.14 0.29 0.52 0.53 0.41 0.21 0.14 0.15 0.20 0.27 0.37 0.51 0.94 1.96 2.45 2.38 2.22 1.93 1.76 1.71 1.68 1.58 1.40 1.30 1.19 1.10 1.13 1.23 1.28 1.33 1.47 1.66 1.68 1.59 1.55 1.64 1.62 1.54 1.45 1.35 1.29 1.19 1.05 0.99
0.11 0.28 0.64 1.09 0.83 0.46 0.27 0.19 0.24 0.36 0.56 0.68 0.94 1.42 1.74 1.87 1.95 1.97 2.06 2.09 1.90 1.68 1.48 1.30 1.23 1.17 1.18 1.24 1.24 1.28 1.36 1.48 1.55 1.53 1.52 1.50 1.45 1.38 1.34 1.21 1.03 0.96 0.89 0.91
0.17 0.34 0.36 0.42 0.41 0.41 0.40 0.34 0.31 0.40 0.50 0.77 1.07 1.40 1.69 1.77 1.80 1.87 2.00 1.93 1.70 1.53 1.38 1.24 1.22 1.29 1.26 1.22 1.20 1.19 1.26 1.29 1.45 1.50 1.44 1.37 1.33 1.30 1.26 1.18 1.05 0.94 0.84 0.78
0.20 0.34 0.36 0.42 0.36 0.44 0.42 0.42 0.43 0.51 0.61 0.82 1.15 1.56 1.77 1.76 1.74 1.82 1.93 1.87 1.69 1.42 1.27 1.20 1.20 1.27 1.23 1.18 1.13 1.07 1.13 1.17 1.27 1.37 1.32 1.24 1.19 1.25 1.20 1.16 1.08 0.98 0.84 0.76
0.28 0.44 0.59 0.61 0.40 0.59 0.87 0.66 0.67 0.75 0.78 0.96 1.34 1.54 1.59 1.67 1.68 1.75 1.86 1.93 1.79 1.55 1.44 1.46 1.49 1.46 1.35 1.22 1.13 1.11 1.16 1.20 1.24 1.30 1.23 1.22 1.19 1.16 1.13 1.01 0.94 0.92 0.84 0.72
0.28 0.47 0.61 0.61 0.74 1.19 1.09 0.61 0.68 0.81 0.84 0.88 1.00 1.14 1.30 1.41 1.47 1.63 1.81 1.95 1.90 1.78 1.74 1.76 1.70 1.55 1.41 1.29 1.24 1.19 1.15 1.20 1.27 1.24 1.17 1.10 1.10 1.06 1.02 0.98 0.89 0.81 0.78 0.72
0.17 0.40 0.65 0.83 1.12 1.31 1.07 0.64 0.61 0.91 1.08 0.85 0.85 0.88 0.91 0.95 1.12 1.49 1.65 1.74 1.76 1.77 1.72 1.63 1.54 1.44 1.36 1.26 1.20 1.13 1.10 1.07 1.09 1.06 1.02 0.94 0.94 1.00 1.02 0.97 0.91 0.82 0.77 0.73
0.16 0.30 0.69 0.93 1.27 1.54 1.29 0.61 0.43 0.76 1.42 0.98 0.85 0.89 0.93 1.04 1.27 1.36 1.30 1.30 1.34 1.37 1.40 1.40 1.36 1.28 1.21 1.13 1.04 0.97 0.98 0.98 0.96 0.94 0.94 0.83 0.82 0.89 0.95 0.92 0.85 0.74 0.69 0.68
0.49 0.55 0.74 0.93 1.20 1.35 0.77 0.46 0.60 1.28 1.62 1.08 0.92 0.94 1.06 1.19 1.17 0.96 0.89 0.96 1.04 1.15 1.20 1.21 1.25 1.25 1.12 0.94 0.88 0.90 0.89 0.88 0.78 0.76 0.83 0.83 0.81 0.81 0.80 0.80 0.81 0.73 0.65 0.63
0.64 0.80 0.88 1.00 1.32 1.43 0.62 0.50 0.92 1.11 0.86 0.83 0.87 0.90 0.90 0.85 0.72 0.70 0.73 0.75 0.79 0.94 1.06 1.05 1.09 1.05 0.93 0.84 0.86 0.90 0.85 0.76 0.71 0.77 0.85 0.84 0.80 0.71 0.70 0.80 0.85 0.76 0.66 0.62
0.52 0.66 0.87 1.06 1.23 0.94 0.51 0.52 0.60 0.59 0.66 0.67 0.68 0.64 0.59 0.58 0.55 0.55 0.64 0.69 0.73 0.81 0.90 0.90 0.89 0.88 0.88 0.86 0.89 0.90 0.83 0.72 0.74 0.80 0.84 0.83 0.76 0.72 0.72 0.77 0.80 0.75 0.68 0.59
0.46 0.34 0.46 0.68 0.71 0.51 0.43 0.39 0.38 0.42 0.52 0.54 0.57 0.61 0.53 0.54 0.55 0.55 0.58 0.66 0.74 0.79 0.79 0.78 0.77 0.77 0.80 0.77 0.76 0.75 0.67 0.65 0.75 0.82 0.80 0.78 0.79 0.78 0.73 0.68 0.64 0.62 0.58 0.52
0.43 0.41 0.53 0.63 0.52 0.44 0.43 0.36 0.31 0.33 0.37 0.42 0.50 0.59 0.59 0.57 0.63 0.61 0.61 0.67 0.71 0.74 0.74 0.75 0.76 0.75 0.72 0.69 0.64 0.62 0.63 0.68 0.77 0.77 0.71 0.71 0.75 0.73 0.68 0.57 0.49 0.45 0.39 0.31
0.34 0.44 0.60 0.64 0.49 0.51 0.46 0.33 0.30 0.37 0.40 0.41 0.47 0.57 0.55 0.54 0.62 0.67 0.67 0.64 0.62 0.65 0.66 0.69 0.67 0.66 0.66 0.61 0.58 0.59 0.61 0.61 0.68 0.68 0.62 0.60 0.63 0.62 0.54 0.47 0.41 0.34 0.25 0.22

GEFSCGP_prec_meanprecacc_198.txt.gz
Total_Precipitation_Accumulation
0.00 0.01 0.01 0.01 0.01 0.01 0.01 0.02 0.03 0.04 0.04 0.05 0.10 0.18 0.28 0.34 0.40 0.54 0.69 0.76 0.81 0.96 1.38 1.80 1.99 2.11 2.41 2.62 2.81 2.81 2.96 3.24 3.46 3.83 3.80 3.97 4.37 4.71 4.83 4.96 4.96 4.84 4.71 4.65
0.01 0.02 0.02 0.01 0.01 0.01 0.01 0.01 0.03 0.05 0.06 0.08 0.15 0.25 0.31 0.36 0.42 0.55 0.74 0.82 0.77 0.96 1.29 1.74 1.98 2.31 2.54 2.68 2.93 3.06 3.17 3.55 4.04 4.57 5.09 5.46 5.79 5.76 5.84 5.81 5.69 5.38 5.17 5.00
0.02 0.01 0.01 0.01 0.01 0.01 0.01 0.01 0.02 0.04 0.08 0.11 0.18 0.35 0.43 0.48 0.56 0.62 0.74 0.81 0.88 1.07 1.38 1.63 1.89 2.19 2.47 2.70 2.96 3.15 3.44 4.01 4.83 5.32 5.78 6.31 6.61 6.36 6.09 5.81 5.72 5.62 5.53 5.39
0.01 0.01 0.01 0.01 0.01 0.01 0.02 0.02 0.03 0.04 0.07 0.14 0.18 0.42 0.64 0.70 0.79 0.76 0.87 1.01 1.15 1.27 1.42 1.63 1.85 2.11 2.43 2.78 2.91 3.11 3.65 4.33 4.98 5.51 6.12 6.70 6.97 7.04 6.86 6.30 5.79 5.38 5.07 4.81
0.01 0.01 0.01 0.02 0.01 0.01 0.02 0.01 0.02 0.05 0.07 0.12 0.16 0.37 0.79 1.00 1.09 1.07 1.15 1.19 1.23 1.27 1.38 1.55 1.74 1.93 2.09 2.43 2.88 3.22 3.77 4.42 5.05 5.76 6.48 6.90 7.17 7.20 6.85 6.06 5.27 4.73 4.41 4.11
0.01 0.01 0.02 0.02 0.01 0.01 0.01 0.02 0.03 0.05 0.08 0.16 0.17 0.35 0.90 1.27 1.48 1.47 1.37 1.37 1.36 1.29 1.27 1.32 1.52 1.69 1.98 2.30 2.67 3.15 3.47 4.06 4.72 5.31 5.86 6.03 6.22 6.18 5.79 5.37 4.89 4.47 3.94 3.45
0.02 0.02 0.02 0.02 0.01 0.01 0.02 0.03 0.12 0.22 0.27 0.28 0.22 0.46 1.00 1.32 1.33 1.31 1.32 1.41 1.38 1.22 1.23 1.43 1.70 1.67 1.92 2.22 2.59 3.01 3.38 3.76 4.26 4.76 5.23 5.47 5.64 5.54 5.06 4.59 4.16 3.72 3.22 2.82
0.08 0.06 0.04 0.02 0.03 0.03 0.03 0.06 0.21 0.37 0.42 0.43 0.42 0.76 1.18 1.22 1.13 1.09 1.08 1.14 1.26 1.28 1.28 1.37 1.52 1.60 1.84 2.07 2.34 2.73 3.05 3.41 3.64 3.86 4.19 4.43 4.58 4.47 4.14 3.64 3.16 2.85 2.57 2.28
0.15 0.14 0.06 0.03 0.03 0.03 0.05 0.07 0.14 0.17 0.24 0.44 0.79 1.09 1.44 1.39 1.27 1.19 1.07 1.07 1.18 1.16 1.16 1.24 1.36 1.50 1.69 1.98 2.34 2.61 2.74 2.94 3.13 3.31 3.35 3.36 3.45 3.35 3.09 2.79 2.48 2.20 1.94 1.71
0.14 0.20 0.09 0.04 0.03 0.05 0.06 0.07 0.11 0.19 0.43 0.63 0.92 1.39 1.73 1.85 1.74 1.61 1.31 1.20 1.15 1.18 1.18 1.19 1.27 1.39 1.50 1.58 1.92 2.25 2.31 2.43 2.52 2.56 2.59 2.55 2.58 2.45 2.35 2.20 1.98 1.72 1.56 1.39
0.16 0.21 0.14 0.07 0.08 0.09 0.08 0.10 0.13 0.21 0.31 0.61 1.01 1.59 1.80 2.09 2.16 1.99 1.67 1.51 1.45 1.41 1.33 1.28 1.28 1.28 1.37 1.45 1.60 1.86 2.06 2.08 2.12 2.23 2.18 2.05 2.07 2.05 2.01 1.90 1.76 1.62 1.55 1.43
0.17 0.23 0.22 0.14 0.12 0.10 0.10 0.13 0.21 0.37 0.39 0.44 0.89 1.78 2.10 2.22 2.17 1.91 1.73 1.58 1.52 1.43 1.29 1.24 1.19 1.12 1.17 1.32 1.42 1.55 1.75 1.81 1.83 1.87 1.90 1.93 1.91 1.85 1.78 1.61 1.48 1.36 1.22 1.11
0.14 0.29 0.52 0.53 0.41 0.22 0.15 0.15 0.20 0.27 0.38 0.52 0.97 1.99 2.48 2.39 2.23 1.94 1.77 1.72 1.69 1.59 1.41 1.31 1.20 1.12 1.14 1.24 1.29 1.35 1.49 1.68 1.71 1.66 1.63 1.73 1.72 1.60 1.49 1.39 1.32 1.21 1.08 1.02
0.11 0.28 0.64 1.09 0.84 0.47 0.28 0.20 0.24 0.36 0.57 0.70 0.97 1.44 1.76 1.88 1.96 1.98 2.07 2.10 1.91 1.69 1.48 1.30 1.24 1.19 1.20 1.25 1.25 1.29 1.38 1.51 1.61 1.62 1.64 1.62 1.56 1.45 1.39 1.26 1.08 0.99 0.91 0.95
0.17 0.34 0.36 0.42 0.41 0.41 0.41 0.34 0.31 0.41 0.51 0.79 1.09 1.42 1.71 1.78 1.81 1.88 2.02 1.94 1.71 1.54 1.39 1.25 1.23 1.30 1.27 1.23 1.21 1.21 1.32 1.37 1.56 1.62 1.56 1.48 1.42 1.37 1.32 1.23 1.11 0.99 0.89 0.83
0.20 0.34 0.36 0.43 0.37 0.45 0.44 0.42 0.44 0.52 0.62 0.84 1.16 1.58 1.78 1.77 1.75 1.83 1.93 1.88 1.69 1.43 1.28 1.20 1.20 1.28 1.24 1.20 1.14 1.08 1.16 1.22 1.35 1.47 1.42 1.31 1.26 1.30 1.24 1.20 1.12 1.03 0.92 0.82
0.28 0.44 0.59 0.62 0.41 0.61 0.88 0.67 0.68 0.77 0.80 0.99 1.36 1.56 1.61 1.68 1.69 1.75 1.86 1.94 1.81 1.56 1.46 1.47 1.49 1.47 1.36 1.23 1.14 1.12 1.18 1.25 1.30 1.37 1.30 1.29 1.26 1.21 1.17 1.04 0.98 0.99 0.96 0.81
0.29 0.47 0.61 0.62 0.75 1.21 1.10 0.62 0.69 0.83 0.86 0.91 1.02 1.15 1.31 1.42 1.47 1.64 1.82 1.97 1.92 1.80 1.76 1.77 1.71 1.56 1.43 1.30 1.25 1.21 1.17 1.25 1.33 1.31 1.24 1.17 1.16 1.11 1.06 1.02 0.95 0.93 0.90 0.79
0.17 0.41 0.65 0.83 1.13 1.32 1.08 0.65 0.63 0.93 1.11 0.88 0.87 0.89 0.92 0.95 1.12 1.50 1.66 1.75 1.79 1.79 1.74 1.64 1.56 1.47 1.39 1.28 1.22 1.14 1.12 1.11 1.14 1.12 1.08 1.00 1.01 1.06 1.07 1.03 1.01 0.95 0.86 0.77
0.17 0.31 0.69 0.93 1.28 1.57 1.31 0.63 0.44 0.79 1.46 1.01 0.86 0.90 0.93 1.05 1.29 1.38 1.31 1.32 1.36 1.39 1.41 1.42 1.39 1.30 1.24 1.16 1.05 0.98 1.00 1.01 1.00 1.00 1.00 0.90 0.89 0.95 1.01 0.99 0.94 0.83 0.75 0.72
0.50 0.55 0.74 0.94 1.21 1.39 0.80 0.47 0.61 1.31 1.68 1.12 0.93 0.95 1.07 1.21 1.20 0.99 0.92 0.98 1.07 1.17 1.22 1.22 1.29 1.28 1.15 0.96 0.89 0.92 0.91 0.91 0.82 0.81 0.88 0.90 0.88 0.87 0.86 0.86 0.87 0.78 0.68 0.66
0.64 0.80 0.88 1.00 1.34 1.46 0.64 0.51 0.94 1.14 0.90 0.85 0.88 0.90 0.91 0.86 0.75 0.73 0.75 0.78 0.81 0.96 1.08 1.06 1.13 1.08 0.95 0.84 0.86 0.90 0.87 0.78 0.74 0.81 0.91 0.90 0.86 0.77 0.75 0.85 0.89 0.79 0.68 0.65
0.52 0.67 0.88 1.06 1.25 0.96 0.52 0.53 0.61 0.61 0.67 0.68 0.69 0.65 0.60 0.59 0.57 0.57 0.66 0.72 0.76 0.83 0.93 0.92 0.93 0.91 0.89 0.86 0.89 0.90 0.83 0.74 0.77 0.84 0.88 0.87 0.81 0.77 0.77 0.80 0.82 0.77 0.70 0.62
0.46 0.34 0.46 0.69 0.72 0.51 0.43 0.40 0.38 0.43 0.52 0.54 0.57 0.62 0.54 0.56 0.56 0.56 0.60 0.68 0.76 0.82 0.81 0.79 0.81 0.80 0.81 0.78 0.77 0.76 0.68 0.67 0.77 0.85 0.83 0.82 0.83 0.82 0.76 0.70 0.66 0.64 0.61 0.55
0.43 0.42 0.53 0.64 0.52 0.45 0.44 0.36 0.31 0.33 0.38 0.43 0.50 0.60 0.59 0.57 0.64 0.62 0.62 0.69 0.74 0.78 0.77 0.77 0.79 0.78 0.73 0.70 0.65 0.63 0.64 0.69 0.78 0.78 0.72 0.73 0.77 0.76 0.70 0.59 0.51 0.48 0.42 0.34
0.34 0.44 0.61 0.64 0.50 0.52 0.46 0.34 0.31 0.37 0.41 0.41 0.47 0.58 0.55 0.54 0.62 0.67 0.68 0.65 0.64 0.68 0.69 0.72 0.69 0.69 0.67 0.61 0.59 0.60 0.62 0.62 0.70 0.69 0.64 0.61 0.65 0.64 0.56 0.50 0.45 0.39 0.29 0.24

GEFSCGP_prec_meanprecacc_204.txt.gz
Total_Precipitation_Accumulation
0.01 0.01 0.01 0.01 0.01 0.01 0.01 0.03 0.03 0.04 0.04 0.05 0.10 0.19 0.28 0.35 0.42 0.56 0.71 0.77 0.82 0.98 1.40 1.81 2.00 2.11 2.43 2.64 2.82 2.82 2.98 3.27 3.50 3.90 3.88 4.06 4.49 4.85 5.00 5.11 5.05 4.93 4.80 4.76
0.02 0.02 0.02 0.01 0.01 0.01 0.01 0.01 0.03 0.05 0.06 0.08 0.15 0.25 0.32 0.37 0.43 0.56 0.75 0.82 0.78 0.98 1.30 1.76 2.00 2.34 2.57 2.69 2.94 3.08 3.18 3.57 4.06 4.62 5.15 5.54 5.87 5.88 5.98 5.95 5.80 5.48 5.26 5.09
0.02 0.01 0.01 0.01 0.01 0.01 0.01 0.02 0.03 0.05 0.08 0.11 0.19 0.36 0.44 0.49 0.57 0.63 0.75 0.81 0.89 1.09 1.40 1.64 1.91 2.23 2.51 2.72 2.99 3.17 3.45 4.03 4.84 5.35 5.82 6.38 6.69 6.43 6.17 5.89 5.79 5.68 5.59 5.46
0.01 0.01 0.01 0.01 0.01 0.01 0.02 0.02 0.03 0.05 0.07 0.16 0.20 0.43 0.66 0.72 0.80 0.77 0.89 1.02 1.16 1.28 1.44 1.65 1.87 2.15 2.46 2.81 2.94 3.13 3.67 4.36 5.01 5.55 6.16 6.75 7.03 7.10 6.91 6.35 5.85 5.42 5.12 4.87
0.01 0.01 0.01 0.02 0.01 0.01 0.02 0.01 0.02 0.05 0.08 0.14 0.18 0.39 0.82 1.05 1.13 1.10 1.17 1.21 1.24 1.27 1.39 1.56 1.76 1.97 2.13 2.46 2.92 3.26 3.82 4.48 5.11 5.82 6.54 6.97 7.23 7.26 6.90 6.10 5.31 4.78 4.45 4.15
0.01 0.01 0.02 0.02 0.01 0.01 0.01 0.02 0.03 0.07 0.12 0.20 0.19 0.38 0.95 1.32 1.53 1.50 1.40 1.40 1.38 1.30 1.28 1.33 1.54 1.71 2.01 2.34 2.72 3.21 3.54 4.13 4.80 5.38 5.94 6.12 6.29 6.25 5.85 5.41 4.93 4.51 3.98 3.49
0.02 0.02 0.02 0.02 0.01 0.01 0.02 0.04 0.15 0.27 0.32 0.32 0.23 0.48 1.03 1.35 1.36 1.35 1.36 1.43 1.40 1.23 1.25 1.47 1.74 1.70 1.95 2.25 2.63 3.05 3.44 3.83 4.34 4.86 5.34 5.57 5.71 5.60 5.12 4.64 4.20 3.76 3.25 2.86
0.09 0.06 0.04 0.02 0.03 0.03 0.03 0.08 0.24 0.41 0.46 0.48 0.45 0.79 1.21 1.23 1.14 1.10 1.09 1.15 1.27 1.30 1.34 1.44 1.58 1.64 1.86 2.09 2.36 2.76 3.10 3.47 3.71 3.94 4.29 4.53 4.66 4.53 4.18 3.69 3.21 2.89 2.61 2.32
0.15 0.14 0.06 0.03 0.03 0.03 0.05 0.08 0.15 0.18 0.25 0.47 0.82 1.12 1.46 1.41 1.28 1.20 1.08 1.08 1.19 1.17 1.18 1.28 1.42 1.53 1.70 2.00 2.36 2.64 2.77 2.98 3.18 3.38 3.43 3.43 3.53 3.42 3.15 2.84 2.53 2.24 1.98 1.74
0.14 0.20 0.09 0.04 0.03 0.05 0.06 0.08 0.11 0.19 0.45 0.67 0.96 1.43 1.77 1.88 1.77 1.63 1.34 1.22 1.16 1.19 1.19 1.20 1.28 1.41 1.52 1.61 1.95 2.27 2.34 2.46 2.56 2.63 2.66 2.60 2.64 2.52 2.43 2.26 2.02 1.76 1.60 1.43
0.16 0.21 0.14 0.07 0.08 0.09 0.08 0.10 0.13 0.21 0.32 0.64 1.05 1.63 1.84 2.12 2.20 2.04 1.70 1.52 1.47 1.42 1.34 1.29 1.29 1.29 1.39 1.49 1.63 1.89 2.09 2.11 2.16 2.28 2.24 2.11 2.14 2.13 2.08 1.96 1.80 1.66 1.60 1.48
0.18 0.24 0.22 0.14 0.12 0.10 0.10 0.13 0.22 0.39 0.42 0.47 0.92 1.81 2.11 2.24 2.19 1.94 1.74 1.59 1.53 1.45 1.30 1.25 1.20 1.13 1.19 1.34 1.45 1.57 1.78 1.84 1.85 1.91 1.96 2.00 1.99 1.92 1.84 1.66 1.52 1.40 1.27 1.17
0.14 0.29 0.53 0.54 0.42 0.22 0.15 0.15 0.21 0.29 0.41 0.56 1.00 2.02 2.49 2.41 2.25 1.95 1.78 1.73 1.70 1.61 1.42 1.32 1.21 1.13 1.15 1.26 1.32 1.38 1.52 1.71 1.75 1.68 1.68 1.80 1.79 1.68 1.57 1.45 1.38 1.28 1.14 1.08
0.11 0.28 0.65 1.10 0.85 0.47 0.28 0.20 0.24 0.37 0.60 0.73 0.98 1.46 1.78 1.89 1.98 1.99 2.07 2.10 1.92 1.71 1.50 1.32 1.25 1.20 1.20 1.26 1.27 1.31 1.41 1.55 1.65 1.66 1.68 1.68 1.63 1.55 1.52 1.36 1.16 1.07 0.99 1.02
0.17 0.35 0.37 0.42 0.41 0.41 0.41 0.35 0.32 0.41 0.52 0.81 1.10 1.43 1.73 1.81 1.84 1.89 2.03 1.95 1.72 1.56 1.40 1.26 1.24 1.31 1.28 1.24 1.22 1.23 1.35 1.41 1.61 1.68 1.63 1.57 1.52 1.48 1.46 1.36 1.22 1.09 0.97 0.89
0.20 0.35 0.37 0.43 0.37 0.45 0.44 0.43 0.45 0.53 0.63 0.85 1.17 1.59 1.80 1.79 1.77 1.85 1.95 1.89 1.71 1.44 1.29 1.21 1.21 1.29 1.25 1.21 1.16 1.10 1.19 1.26 1.40 1.53 1.51 1.41 1.36 1.41 1.36 1.32 1.23 1.12 1.00 0.89
0.29 0.45 0.60 0.62 0.41 0.62 0.89 0.68 0.69 0.78 0.81 1.00 1.38 1.58 1.62 1.70 1.71 1.77 1.88 1.96 1.82 1.57 1.47 1.48 1.51 1.49 1.37 1.25 1.17 1.16 1.23 1.30 1.36 1.41 1.34 1.34 1.33 1.28 1.25 1.11 1.04 1.07 1.05 0.89
0.29 0.48 0.62 0.62 0.77 1.24 1.13 0.63 0.71 0.85 0.87 0.91 1.03 1.16 1.33 1.44 1.50 1.65 1.84 1.99 1.95 1.82 1.77 1.78 1.73 1.59 1.44 1.32 1.27 1.25 1.23 1.30 1.39 1.36 1.29 1.22 1.23 1.17 1.12 1.08 1.02 1.01 0.98 0.87
0.18 0.41 0.66 0.84 1.15 1.35 1.09 0.66 0.63 0.94 1.11 0.88 0.88 0.90 0.94 0.98 1.15 1.52 1.67 1.77 1.81 1.80 1.75 1.66 1.59 1.50 1.41 1.30 1.25 1.19 1.17 1.16 1.19 1.16 1.12 1.03 1.04 1.10 1.12 1.10 1.10 1.03 0.93 0.84
0.18 0.32 0.70 0.94 1.29 1.59 1.33 0.63 0.45 0.80 1.48 1.03 0.87 0.92 0.96 1.08 1.33 1.41 1.33 1.33 1.37 1.40 1.42 1.44 1.42 1.34 1.26 1.18 1.09 1.04 1.06 1.06 1.04 1.03 1.03 0.93 0.93 0.99 1.06 1.07 1.05 0.92 0.82 0.77
0.50 0.56 0.76 0.95 1.24 1.43 0.82 0.48 0.62 1.33 1.71 1.14 0.95 0.98 1.10 1.24 1.23 1.02 0.94 1.00 1.08 1.18 1.23 1.24 1.33 1.33 1.17 0.98 0.92 0.97 0.97 0.97 0.86 0.84 0.92 0.94 0.93 0.93 0.92 0.93 0.95 0.86 0.75 0.72
0.64 0.81 0.89 1.03 1.39 1.53 0.68 0.54 0.96 1.17 0.93 0.87 0.90 0.92 0.94 0.89 0.77 0.74 0.76 0.79 0.82 0.97 1.10 1.09 1.19 1.14 0.98 0.86 0.89 0.94 0.92 0.83 0.78 0.85 0.95 0.95 0.91 0.81 0.81 0.92 0.96 0.84 0.74 0.70
0.52 0.68 0.89 1.09 1.29 1.00 0.54 0.55 0.63 0.62 0.68 0.69 0.70 0.66 0.62 0.62 0.60 0.59 0.67 0.73 0.77 0.85 0.95 0.96 1.00 0.98 0.93 0.89 0.92 0.94 0.88 0.77 0.81 0.90 0.93 0.92 0.85 0.83 0.83 0.87 0.87 0.81 0.73 0.66
0.46 0.35 0.47 0.69 0.73 0.52 0.44 0.40 0.39 0.43 0.53 0.55 0.58 0.63 0.55 0.57 0.59 0.59 0.62 0.70 0.78 0.84 0.84 0.83 0.88 0.89 0.87 0.82 0.80 0.80 0.71 0.70 0.80 0.90 0.87 0.86 0.87 0.87 0.81 0.75 0.70 0.68 0.64 0.60
0.44 0.42 0.54 0.64 0.53 0.46 0.44 0.37 0.32 0.34 0.38 0.43 0.50 0.60 0.60 0.58 0.65 0.64 0.65 0.71 0.76 0.80 0.80 0.81 0.86 0.88 0.79 0.74 0.69 0.66 0.67 0.72 0.82 0.83 0.77 0.76 0.80 0.79 0.74 0.63 0.55 0.51 0.45 0.38
0.34 0.44 0.62 0.65 0.50 0.52 0.47 0.34 0.31 0.38 0.41 0.42 0.48 0.59 0.56 0.55 0.63 0.70 0.71 0.68 0.67 0.70 0.72 0.76 0.75 0.77 0.74 0.66 0.62 0.63 0.65 0.65 0.73 0.73 0.67 0.65 0.68 0.67 0.60 0.54 0.48 0.41 0.31 0.26

GEFSCGP_prec_meanprecacc_210.txt.gz
Total_Precipitation_Accumulation
0.01 0.01 0.01 0.02 0.02 0.02 0.02 0.03 0.04 0.04 0.04 0.06 0.11 0.20 0.31 0.39 0.45 0.60 0.76 0.82 0.85 1.02 1.44 1.84 2.02 2.15 2.47 2.71 2.88 2.86 3.02 3.31 3.54 3.93 3.92 4.10 4.54 4.89 5.05 5.17 5.13 5.05 4.96 4.92
0.02 0.02 0.02 0.02 0.02 0.01 0.01 0.02 0.03 0.05 0.07 0.09 0.16 0.27 0.36 0.45 0.51 0.64 0.82 0.88 0.82 1.01 1.33 1.78 2.02 2.35 2.59 2.73 2.98 3.12 3.21 3.61 4.10 4.65 5.18 5.57 5.91 5.92 6.04 6.00 5.86 5.55 5.35 5.21
0.02 0.02 0.01 0.01 0.01 0.01 0.01 0.02 0.04 0.06 0.09 0.13 0.20 0.38 0.50 0.59 0.67 0.74 0.83 0.87 0.94 1.13 1.43 1.66 1.92 2.24 2.52 2.74 3.01 3.19 3.48 4.06 4.87 5.39 5.87 6.44 6.76 6.49 6.23 5.94 5.85 5.74 5.66 5.54
0.01 0.01 0.01 0.01 0.01 0.02 0.03 0.04 0.04 0.05 0.09 0.19 0.22 0.45 0.72 0.82 0.94 0.88 0.96 1.08 1.22 1.33 1.47 1.66 1.90 2.18 2.48 2.83 2.96 3.15 3.70 4.40 5.05 5.60 6.22 6.82 7.10 7.16 6.96 6.38 5.89 5.46 5.17 4.93
0.01 0.01 0.01 0.02 0.02 0.02 0.03 0.03 0.03 0.06 0.09 0.17 0.20 0.42 0.87 1.10 1.22 1.19 1.23 1.27 1.29 1.32 1.42 1.59 1.81 2.02 2.16 2.51 2.98 3.30 3.86 4.52 5.16 5.88 6.61 7.04 7.29 7.31 6.94 6.13 5.35 4.82 4.49 4.20
0.01 0.01 0.02 0.02 0.01 0.01 0.02 0.03 0.06 0.10 0.14 0.23 0.22 0.41 0.99 1.36 1.58 1.56 1.45 1.43 1.41 1.33 1.31 1.36 1.58 1.74 2.03 2.39 2.78 3.26 3.57 4.16 4.84 5.44 6.00 6.19 6.35 6.30 5.90 5.46 4.98 4.56 4.02 3.53
0.02 0.02 0.02 0.02 0.02 0.02 0.02 0.06 0.19 0.31 0.35 0.35 0.26 0.51 1.07 1.39 1.40 1.40 1.39 1.45 1.42 1.25 1.27 1.49 1.76 1.73 1.98 2.27 2.66 3.09 3.48 3.85 4.37 4.89 5.37 5.61 5.75 5.64 5.15 4.69 4.25 3.82 3.31 2.91
0.09 0.07 0.04 0.02 0.03 0.04 0.03 0.08 0.25 0.42 0.48 0.50 0.47 0.82 1.25 1.28 1.18 1.13 1.12 1.16 1.29 1.33 1.36 1.46 1.60 1.67 1.93 2.14 2.39 2.78 3.12 3.49 3.73 3.96 4.32 4.55 4.68 4.56 4.21 3.72 3.24 2.92 2.63 2.34
0.16 0.14 0.06 0.03 0.03 0.04 0.05 0.08 0.16 0.20 0.27 0.49 0.85 1.15 1.50 1.44 1.31 1.21 1.09 1.10 1.21 1.18 1.20 1.29 1.44 1.57 1.75 2.04 2.39 2.66 2.79 2.99 3.20 3.40 3.46 3.45 3.54 3.45 3.18 2.87 2.56 2.27 2.00 1.75
0.14 0.20 0.09 0.04 0.03 0.05 0.06 0.08 0.12 0.21 0.47 0.70 0.98 1.45 1.80 1.91 1.80 1.66 1.36 1.25 1.18 1.20 1.20 1.21 1.30 1.45 1.54 1.64 1.97 2.29 2.35 2.47 2.57 2.66 2.70 2.62 2.65 2.53 2.46 2.29 2.05 1.78 1.62 1.44
0.16 0.22 0.14 0.07 0.08 0.09 0.09 0.10 0.14 0.22 0.33 0.68 1.07 1.65 1.86 2.16 2.23 2.07 1.73 1.57 1.50 1.44 1.34 1.30 1.31 1.31 1.40 1.51 1.66 1.90 2.10 2.13 2.17 2.30 2.28 2.15 2.17 2.15 2.11 1.99 1.83 1.68 1.61 1.50
0.18 0.24 0.22 0.15 0.12 0.10 0.10 0.13 0.22 0.39 0.43 0.49 0.94 1.83 2.14 2.27 2.21 1.97 1.79 1.65 1.56 1.47 1.32 1.26 1.21 1.14 1.20 1.37 1.48 1.60 1.80 1.87 1.89 1.96 2.03 2.07 2.04 1.95 1.87 1.69 1.55 1.42 1.29 1.19
0.14 0.29 0.53 0.54 0.42 0.22 0.15 0.15 0.21 0.29 0.41 0.56 1.01 2.03 2.52 2.44 2.27 2.00 1.83 1.76 1.72 1.62 1.44 1.33 1.22 1.14 1.17 1.28 1.35 1.43 1.57 1.77 1.79 1.73 1.73 1.83 1.82 1.71 1.60 1.48 1.41 1.30 1.16 1.10
0.12 0.28 0.65 1.11 0.85 0.48 0.28 0.20 0.24 0.38 0.61 0.73 0.99 1.48 1.81 1.92 1.99 2.01 2.09 2.12 1.94 1.73 1.52 1.32 1.26 1.20 1.22 1.28 1.29 1.34 1.45 1.59 1.69 1.70 1.72 1.70 1.65 1.58 1.55 1.39 1.20 1.11 1.02 1.05
0.17 0.35 0.38 0.42 0.42 0.42 0.42 0.35 0.32 0.42 0.53 0.81 1.11 1.45 1.76 1.82 1.85 1.91 2.03 1.95 1.73 1.57 1.41 1.26 1.25 1.32 1.29 1.26 1.24 1.26 1.38 1.45 1.65 1.72 1.66 1.61 1.57 1.53 1.53 1.46 1.29 1.13 1.01 0.94
0.20 0.35 0.37 0.43 0.37 0.45 0.44 0.43 0.45 0.53 0.63 0.85 1.18 1.61 1.82 1.81 1.78 1.85 1.95 1.90 1.72 1.45 1.29 1.22 1.22 1.30 1.26 1.22 1.17 1.12 1.22 1.29 1.43 1.56 1.54 1.46 1.42 1.47 1.45 1.42 1.29 1.16 1.05 0.96
0.29 0.45 0.61 0.63 0.41 0.62 0.90 0.68 0.69 0.79 0.82 1.01 1.39 1.59 1.63 1.71 1.72 1.78 1.89 1.96 1.83 1.58 1.47 1.49 1.52 1.50 1.39 1.27 1.18 1.18 1.25 1.32 1.38 1.43 1.37 1.37 1.37 1.33 1.30 1.16 1.09 1.11 1.09 0.95
0.30 0.49 0.63 0.63 0.77 1.25 1.13 0.63 0.71 0.85 0.87 0.92 1.04 1.18 1.34 1.45 1.51 1.66 1.85 1.99 1.95 1.82 1.78 1.79 1.74 1.60 1.46 1.34 1.29 1.27 1.25 1.33 1.41 1.39 1.31 1.24 1.25 1.20 1.15 1.11 1.06 1.04 1.01 0.90
0.19 0.42 0.67 0.85 1.17 1.37 1.10 0.66 0.64 0.95 1.12 0.89 0.89 0.91 0.95 0.98 1.16 1.53 1.68 1.78 1.81 1.81 1.76 1.67 1.60 1.52 1.43 1.32 1.26 1.20 1.19 1.19 1.22 1.18 1.14 1.05 1.06 1.12 1.14 1.12 1.12 1.05 0.95 0.86
0.20 0.34 0.72 0.96 1.31 1.61 1.33 0.63 0.45 0.80 1.48 1.03 0.88 0.93 0.97 1.09 1.34 1.42 1.34 1.34 1.38 1.41 1.44 1.46 1.44 1.37 1.29 1.20 1.11 1.06 1.09 1.09 1.06 1.05 1.04 0.95 0.95 1.02 1.08 1.09 1.07 0.94 0.84 0.80
0.51 0.57 0.78 0.98 1.27 1.46 0.83 0.48 0.63 1.34 1.71 1.14 0.96 0.98 1.11 1.24 1.24 1.03 0.95 1.01 1.09 1.20 1.26 1.27 1.37 1.39 1.22 1.02 0.96 1.00 1.00 1.00 0.89 0.86 0.93 0.96 0.95 0.95 0.95 0.96 0.97 0.89 0.77 0.75
0.65 0.82 0.91 1.06 1.44 1.58 0.70 0.54 0.97 1.18 0.93 0.87 0.90 0.93 0.95 0.90 0.78 0.76 0.78 0.81 0.84 0.99 1.12 1.13 1.25 1.20 1.02 0.89 0.91 0.97 0.94 0.85 0.80 0.88 0.98 0.98 0.95 0.85 0.84 0.94 0.97 0.87 0.77 0.73
0.53 0.68 0.90 1.11 1.33 1.05 0.57 0.56 0.63 0.62 0.68 0.69 0.70 0.66 0.62 0.63 0.60 0.60 0.68 0.75 0.79 0.87 0.98 0.99 1.03 1.01 0.95 0.91 0.96 0.99 0.93 0.81 0.84 0.93 0.97 0.97 0.91 0.88 0.86 0.89 0.89 0.83 0.75 0.69
0.46 0.35 0.47 0.69 0.73 0.53 0.45 0.41 0.40 0.43 0.53 0.55 0.58 0.63 0.55 0.58 0.60 0.60 0.63 0.71 0.80 0.86 0.86 0.86 0.91 0.92 0.89 0.84 0.84 0.84 0.76 0.75 0.84 0.93 0.90 0.90 0.93 0.93 0.85 0.78 0.73 0.70 0.66 0.62
0.44 0.42 0.54 0.65 0.53 0.46 0.44 0.37 0.32 0.34 0.38 0.43 0.50 0.60 0.60 0.59 0.66 0.65 0.66 0.72 0.78 0.83 0.83 0.85 0.90 0.91 0.82 0.77 0.72 0.71 0.72 0.76 0.86 0.85 0.79 0.79 0.84 0.83 0.79 0.67 0.58 0.54 0.47 0.39
0.34 0.44 0.62 0.65 0.50 0.53 0.47 0.34 0.31 0.38 0.41 0.42 0.48 0.59 0.56 0.56 0.64 0.71 0.72 0.70 0.69 0.75 0.77 0.80 0.78 0.79 0.75 0.67 0.64 0.66 0.69 0.68 0.76 0.75 0.69 0.67 0.70 0.70 0.64 0.58 0.50 0.43 0.32 0.28

GEFSCGP_prec_meanprecacc_216.txt.gz
Total_Precipitation_Accumulation
0.01 0.01 0.02 0.02 0.02 0.02 0.02 0.03 0.04 0.05 0.05 0.07 0.12 0.21 0.32 0.41 0.48 0.63 0.79 0.86 0.88 1.06 1.47 1.87 2.05 2.17 2.50 2.73 2.91 2.89 3.04 3.35 3.59 3.97 3.96 4.16 4.59 4.96 5.11 5.23 5.20 5.12 5.04 5.03
0.02 0.02 0.02 0.02 0.02 0.02 0.01 0.02 0.04 0.06 0.08 0.10 0.17 0.28 0.37 0.46 0.53 0.67 0.85 0.91 0.85 1.05 1.36 1.80 2.03 2.37 2.61 2.75 3.00 3.13 3.24 3.63 4.13 4.69 5.21 5.60 5.95 5.96 6.09 6.05 5.92 5.62 5.44 5.30
0.02 0.02 0.01 0.01 0.01 0.01 0.02 0.03 0.05 0.06 0.10 0.14 0.20 0.38 0.50 0.60 0.68 0.76 0.85 0.91 0.98 1.17 1.47 1.68 1.93 2.25 2.53 2.75 3.02 3.20 3.49 4.08 4.90 5.42 5.89 6.46 6.79 6.52 6.26 5.97 5.89 5.79 5.72 5.60
0.01 0.01 0.01 0.01 0.01 0.02 0.04 0.04 0.05 0.06 0.10 0.20 0.23 0.46 0.73 0.83 0.95 0.89 0.97 1.11 1.25 1.36 1.49 1.68 1.91 2.19 2.49 2.83 2.97 3.16 3.71 4.41 5.07 5.62 6.24 6.84 7.14 7.19 6.99 6.42 5.93 5.50 5.21 4.99
0.01 0.01 0.02 0.02 0.02 0.02 0.04 0.04 0.04 0.07 0.10 0.18 0.22 0.44 0.88 1.11 1.24 1.20 1.25 1.30 1.33 1.35 1.45 1.61 1.82 2.03 2.17 2.52 2.99 3.31 3.86 4.52 5.17 5.90 6.63 7.07 7.31 7.33 6.97 6.17 5.38 4.85 4.53 4.24
0.01 0.01 0.02 0.02 0.02 0.02 0.02 0.04 0.06 0.11 0.15 0.25 0.24 0.42 1.00 1.37 1.59 1.58 1.46 1.47 1.45 1.37 1.34 1.38 1.59 1.75 2.04 2.39 2.79 3.27 3.58 4.17 4.85 5.45 6.02 6.20 6.36 6.31 5.91 5.47 4.99 4.59 4.06 3.58
0.03 0.02 0.03 0.02 0.02 0.02 0.02 0.06 0.21 0.34 0.38 0.37 0.27 0.52 1.08 1.40 1.41 1.41 1.40 1.48 1.45 1.27 1.30 1.51 1.77 1.74 1.99 2.28 2.66 3.10 3.48 3.87 4.38 4.91 5.39 5.63 5.76 5.65 5.16 4.69 4.26 3.83 3.33 2.94
0.10 0.07 0.04 0.02 0.03 0.04 0.03 0.08 0.27 0.44 0.49 0.51 0.47 0.83 1.27 1.29 1.19 1.14 1.13 1.18 1.32 1.35 1.39 1.48 1.61 1.68 1.94 2.15 2.40 2.79 3.13 3.50 3.74 3.97 4.33 4.57 4.70 4.56 4.22 3.73 3.25 2.93 2.65 2.36
0.16 0.14 0.06 0.03 0.03 0.04 0.05 0.08 0.16 0.20 0.27 0.50 0.85 1.15 1.51 1.44 1.31 1.22 1.10 1.11 1.23 1.21 1.22 1.32 1.46 1.58 1.76 2.05 2.40 2.67 2.80 3.00 3.21 3.41 3.47 3.46 3.55 3.45 3.19 2.88 2.57 2.28 2.01 1.77
0.14 0.20 0.09 0.04 0.03 0.05 0.06 0.08 0.12 0.21 0.47 0.71 0.98 1.46 1.81 1.91 1.80 1.67 1.37 1.26 1.19 1.23 1.22 1.23 1.32 1.46 1.55 1.64 1.98 2.30 2.36 2.48 2.58 2.67 2.71 2.64 2.66 2.54 2.47 2.30 2.06 1.79 1.63 1.46
0.16 0.22 0.14 0.07 0.08 0.09 0.09 0.10 0.14 0.22 0.33 0.68 1.08 1.66 1.87 2.16 2.23 2.08 1.74 1.58 1.52 1.46 1.36 1.31 1.32 1.32 1.41 1.52 1.66 1.91 2.11 2.14 2.18 2.32 2.30 2.17 2.21 2.19 2.15 2.02 1.86 1.72 1.65 1.53
0.18 0.24 0.22 0.15 0.12 0.10 0.10 0.14 0.22 0.40 0.43 0.49 0.94 1.84 2.14 2.27 2.22 1.97 1.79 1.67 1.58 1.49 1.33 1.28 1.22 1.15 1.21 1.37 1.49 1.61 1.81 1.89 1.91 1.99 2.06 2.11 2.11 2.04 1.93 1.75 1.62 1.49 1.36 1.24
0.14 0.29 0.53 0.54 0.42 0.22 0.15 0.15 0.21 0.29 0.41 0.56 1.01 2.04 2.53 2.44 2.28 2.00 1.84 1.77 1.73 1.64 1.45 1.34 1.23 1.14 1.17 1.29 1.36 1.44 1.59 1.79 1.82 1.76 1.76 1.86 1.85 1.74 1.63 1.52 1.45 1.36 1.21 1.14
0.12 0.28 0.65 1.11 0.85 0.48 0.28 0.20 0.24 0.38 0.61 0.73 0.99 1.48 1.81 1.92 2.00 2.01 2.10 2.13 1.95 1.73 1.52 1.33 1.27 1.21 1.22 1.29 1.30 1.36 1.47 1.63 1.73 1.73 1.75 1.73 1.68 1.61 1.58 1.42 1.24 1.14 1.06 1.09
0.17 0.35 0.38 0.42 0.42 0.42 0.42 0.35 0.32 0.42 0.53 0.82 1.12 1.45 1.76 1.83 1.86 1.91 2.03 1.96 1.73 1.57 1.41 1.27 1.25 1.33 1.30 1.27 1.26 1.28 1.42 1.49 1.69 1.75 1.68 1.64 1.59 1.56 1.56 1.48 1.32 1.15 1.03 0.98
0.20 0.35 0.37 0.43 0.37 0.45 0.44 0.43 0.45 0.53 0.63 0.86 1.19 1.61 1.82 1.82 1.79 1.85 1.95 1.90 1.72 1.45 1.30 1.23 1.23 1.31 1.27 1.23 1.19 1.15 1.25 1.31 1.45 1.59 1.57 1.49 1.45 1.50 1.47 1.43 1.30 1.19 1.08 1.02
0.29 0.45 0.61 0.63 0.41 0.62 0.90 0.68 0.69 0.79 0.82 1.01 1.39 1.59 1.63 1.71 1.72 1.78 1.89 1.96 1.83 1.58 1.48 1.49 1.52 1.51 1.40 1.28 1.21 1.22 1.29 1.34 1.40 1.46 1.40 1.40 1.39 1.35 1.33 1.20 1.11 1.13 1.13 1.02
0.30 0.49 0.63 0.63 0.77 1.25 1.14 0.63 0.71 0.85 0.88 0.92 1.05 1.18 1.34 1.45 1.51 1.66 1.85 2.00 1.95 1.83 1.78 1.80 1.75 1.61 1.47 1.35 1.31 1.30 1.28 1.35 1.43 1.40 1.33 1.26 1.27 1.22 1.17 1.14 1.09 1.07 1.04 0.95
0.19 0.42 0.67 0.85 1.17 1.37 1.10 0.66 0.64 0.95 1.12 0.89 0.89 0.91 0.95 0.98 1.16 1.53 1.68 1.78 1.82 1.82 1.77 1.68 1.61 1.53 1.44 1.33 1.28 1.23 1.22 1.22 1.23 1.20 1.15 1.07 1.08 1.13 1.15 1.13 1.13 1.07 0.97 0.90
0.20 0.34 0.72 0.96 1.31 1.61 1.33 0.63 0.45 0.80 1.48 1.03 0.88 0.93 0.97 1.09 1.34 1.42 1.34 1.35 1.39 1.42 1.44 1.46 1.45 1.38 1.30 1.22 1.13 1.08 1.12 1.12 1.08 1.06 1.06 0.96 0.97 1.03 1.09 1.10 1.08 0.96 0.86 0.82
0.51 0.58 0.78 0.98 1.28 1.46 0.83 0.48 0.63 1.34 1.71 1.14 0.96 0.99 1.11 1.25 1.25 1.03 0.96 1.02 1.10 1.21 1.26 1.27 1.38 1.40 1.24 1.04 0.97 1.01 1.01 1.01 0.90 0.88 0.94 0.96 0.96 0.97 0.96 0.97 0.98 0.91 0.80 0.77
0.65 0.82 0.92 1.07 1.46 1.59 0.71 0.55 0.97 1.18 0.93 0.87 0.90 0.93 0.95 0.91 0.78 0.76 0.79 0.81 0.84 1.00 1.13 1.13 1.25 1.20 1.02 0.90 0.92 0.98 0.95 0.86 0.81 0.88 0.98 0.99 0.96 0.86 0.85 0.95 0.98 0.89 0.79 0.74
0.53 0.69 0.91 1.12 1.35 1.06 0.58 0.57 0.64 0.62 0.68 0.69 0.70 0.66 0.62 0.63 0.61 0.60 0.69 0.75 0.79 0.88 0.98 0.99 1.04 1.02 0.96 0.92 0.97 1.00 0.94 0.82 0.85 0.93 0.98 0.98 0.92 0.89 0.88 0.90 0.90 0.84 0.77 0.70
0.46 0.35 0.47 0.70 0.73 0.54 0.46 0.42 0.40 0.44 0.53 0.55 0.58 0.63 0.55 0.58 0.60 0.60 0.64 0.72 0.81 0.86 0.87 0.87 0.93 0.94 0.91 0.86 0.86 0.86 0.78 0.76 0.86 0.94 0.91 0.91 0.94 0.94 0.86 0.79 0.74 0.72 0.68 0.63
0.44 0.42 0.54 0.65 0.53 0.46 0.44 0.38 0.33 0.35 0.39 0.43 0.51 0.60 0.60 0.59 0.66 0.65 0.66 0.72 0.78 0.84 0.84 0.86 0.92 0.93 0.83 0.78 0.74 0.72 0.73 0.78 0.87 0.88 0.81 0.80 0.85 0.84 0.80 0.69 0.60 0.56 0.49 0.41
0.34 0.44 0.62 0.65 0.50 0.53 0.47 0.34 0.31 0.38 0.42 0.42 0.48 0.59 0.56 0.56 0.64 0.71 0.72 0.70 0.70 0.75 0.78 0.81 0.81 0.81 0.77 0.68 0.65 0.67 0.69 0.69 0.77 0.78 0.72 0.68 0.72 0.72 0.67 0.61 0.54 0.46 0.34 0.29